| time (UTC) | temp F | wind direction | speed MPH | gust MPH | rain 1hr in | rain 24hr in | rain mn in | humidity % | barometer mb |
| 20260508175606 | 73 | 23 | 1.0 | 2.0 | 0.00 | 0.00 | 0.00 | 40 | 1013.6 |
| 20260508175103 | 73 | 286 | 3.0 | 3.0 | 0.00 | 0.00 | 0.00 | 40 | 1013.8 |
| 20260508174601 | 73 | 35 | 1.0 | 1.0 | 0.00 | 0.00 | 0.00 | 43 | 1013.7 |
| 20260508174057 | 73 | 41 | 2.0 | 2.0 | 0.00 | 0.00 | 0.00 | 41 | 1014.0 |
| 20260508173554 | 72 | 17 | 1.0 | 1.0 | 0.00 | 0.00 | 0.00 | 41 | 1013.9 |
| 20260508173050 | 72 | 67 | 2.0 | 3.0 | 0.00 | 0.00 | 0.00 | 43 | 1014.1 |
| 20260508172548 | 72 | 313 | 5.0 | 6.0 | 0.00 | 0.00 | 0.00 | 43 | 1014.2 |
| 20260508172044 | 71 | 267 | 2.0 | 2.0 | 0.00 | 0.00 | 0.00 | 44 | 1014.3 |
| 20260508171541 | 71 | 93 | 3.0 | 4.0 | 0.00 | 0.00 | 0.00 | 42 | 1014.5 |
| 20260508171037 | 71 | 48 | 2.0 | 3.0 | 0.00 | 0.00 | 0.00 | 42 | 1014.5 |
| 20260508170535 | 73 | 259 | 6.0 | 8.0 | 0.00 | 0.00 | 0.00 | 39 | 1014.6 |
| 20260508170032 | 72 | 127 | 1.0 | 2.0 | 0.00 | 0.00 | 0.00 | 42 | 1014.7 |
| 20260508165529 | 71 | 67 | 1.0 | 1.0 | 0.00 | 0.00 | 0.00 | 42 | 1014.7 |
| 20260508165026 | 72 | 70 | 3.0 | 4.0 | 0.00 | 0.00 | 0.00 | 44 | 1015.0 |
| 20260508164522 | 71 | 18 | 1.0 | 1.0 | 0.00 | 0.00 | 0.00 | 41 | 1014.8 |
| 20260508164019 | 71 | 56 | 2.0 | 2.0 | 0.00 | 0.00 | 0.00 | 45 | 1014.8 |
| 20260508163517 | 71 | 241 | 4.0 | 6.0 | 0.00 | 0.00 | 0.00 | 41 | 1015.0 |
| 20260508163013 | 70 | 124 | 2.0 | 2.0 | 0.00 | 0.00 | 0.00 | 45 | 1015.1 |
| 20260508162510 | 71 | 71 | 3.0 | 4.0 | 0.00 | 0.00 | 0.00 | 45 | 1015.5 |
| 20260508162007 | 70 | 131 | 2.0 | 2.0 | 0.00 | 0.00 | 0.00 | 45 | 1015.3 |
| 20260508161504 | 70 | 208 | 1.0 | 2.0 | 0.00 | 0.00 | 0.00 | 45 | 1015.5 |
| 20260508161001 | 70 | 321 | 3.0 | 4.0 | 0.00 | 0.00 | 0.00 | 45 | 1015.4 |
| 20260508160500 | 70 | 130 | 3.0 | 4.0 | 0.00 | 0.00 | 0.00 | 44 | 1015.7 |
| 20260508155955 | 70 | 82 | 2.0 | 2.0 | 0.00 | 0.00 | 0.00 | 47 | 1015.7 |
| 20260508155453 | 70 | 286 | 2.0 | 2.0 | 0.00 | 0.00 | 0.00 | 51 | 1015.7 |
| 20260508154949 | 70 | 96 | 2.0 | 2.0 | 0.00 | 0.00 | 0.00 | 48 | 1015.7 |
| 20260508154448 | 70 | 336 | 2.0 | 3.0 | 0.00 | 0.00 | 0.00 | 48 | 1015.9 |
| 20260508153944 | 69 | 65 | 2.0 | 2.0 | 0.00 | 0.00 | 0.00 | 49 | 1015.7 |
| 20260508153441 | 69 | 62 | 1.0 | 1.0 | 0.00 | 0.00 | 0.00 | 49 | 1016.0 |
| 20260508152937 | 69 | 346 | 5.0 | 7.0 | 0.00 | 0.00 | 0.00 | 48 | 1016.1 |
| 20260508152434 | 68 | 67 | 1.0 | 2.0 | 0.00 | 0.00 | 0.00 | 50 | 1016.3 |
| 20260508151930 | 68 | 294 | 1.0 | 3.0 | 0.00 | 0.00 | 0.00 | 51 | 1016.4 |
| 20260508151427 | 67 | 359 | 3.0 | 3.0 | 0.00 | 0.00 | 0.00 | 52 | 1016.3 |
| 20260508150923 | 67 | 278 | 2.0 | 4.0 | 0.00 | 0.00 | 0.00 | 50 | 1016.4 |
| 20260508150420 | 67 | 343 | 1.0 | 2.0 | 0.00 | 0.00 | 0.00 | 54 | 1016.4 |
| 20260508145916 | 67 | 109 | 2.0 | 3.0 | 0.00 | 0.00 | 0.00 | 53 | 1016.4 |
| 20260508145413 | 67 | 114 | 2.0 | 2.0 | 0.00 | 0.00 | 0.00 | 52 | 1016.5 |
| 20260508144909 | 67 | 231 | 2.0 | 2.0 | 0.00 | 0.00 | 0.00 | 52 | 1016.4 |
| 20260508144407 | 66 | 342 | 2.0 | 2.0 | 0.00 | 0.00 | 0.00 | 55 | 1016.5 |
| 20260508143904 | 65 | 80 | 2.0 | 2.0 | 0.00 | 0.00 | 0.00 | 57 | 1016.6 |
| 20260508143402 | 65 | 38 | 1.0 | 1.0 | 0.00 | 0.00 | 0.00 | 56 | 1016.6 |
| 20260508142858 | 65 | 44 | 1.0 | 2.0 | 0.00 | 0.00 | 0.00 | 56 | 1016.7 |
| 20260508142355 | 65 | 330 | 2.0 | 3.0 | 0.00 | 0.00 | 0.00 | 53 | 1016.7 |
| 20260508141851 | 64 | 112 | 1.0 | 2.0 | 0.00 | 0.00 | 0.00 | 59 | 1016.7 |
| 20260508141348 | 63 | 92 | 2.0 | 3.0 | 0.00 | 0.00 | 0.00 | 59 | 1016.8 |
| 20260508140846 | 62 | 258 | 3.0 | 4.0 | 0.00 | 0.00 | 0.00 | 60 | 1016.8 |
| 20260508140343 | 62 | 73 | 0.0 | 1.0 | 0.00 | 0.00 | 0.00 | 63 | 1016.7 |
| 20260508135838 | 60 | 62 | 1.0 | 1.0 | 0.00 | 0.00 | 0.00 | 63 | 1016.8 |
| 20260508135335 | 60 | 51 | 0.0 | 0.0 | 0.00 | 0.00 | 0.00 | 66 | 1016.7 |
| 20260508134831 | 59 | 264 | 3.0 | 3.0 | 0.00 | 0.00 | 0.00 | 64 | 1016.7 |
| 20260508134328 | 59 | 233 | 4.0 | 6.0 | 0.00 | 0.00 | 0.00 | 66 | 1016.9 |
| 20260508133825 | 59 | 115 | 1.0 | 2.0 | 0.00 | 0.00 | 0.00 | 66 | 1016.9 |
| 20260508133323 | 58 | 70 | 2.0 | 2.0 | 0.00 | 0.00 | 0.00 | 68 | 1017.1 |
| 20260508132820 | 58 | 52 | 1.0 | 2.0 | 0.00 | 0.00 | 0.00 | 67 | 1017.0 |
| 20260508132317 | 57 | 57 | 0.0 | 0.0 | 0.00 | 0.00 | 0.00 | 70 | 1017.2 |
| 20260508131813 | 57 | 59 | 0.0 | 1.0 | 0.00 | 0.00 | 0.00 | 71 | 1017.2 |
| 20260508131309 | 56 | 35 | 1.0 | 1.0 | 0.00 | 0.00 | 0.00 | 71 | 1017.0 |
| 20260508130806 | 56 | 51 | 0.0 | 0.0 | 0.00 | 0.00 | 0.00 | 72 | 1016.9 |
| 20260508130303 | 55 | 272 | 2.0 | 3.0 | 0.00 | 0.00 | 0.00 | 72 | 1017.1 |
| 20260508125759 | 55 | 102 | 1.0 | 1.0 | 0.00 | 0.00 | 0.00 | 75 | 1016.7 |
| 20260508125255 | 54 | 304 | 2.0 | 2.0 | 0.00 | 0.00 | 0.00 | 78 | 1017.2 |
| 20260508124754 | 54 | 71 | 0.0 | 0.0 | 0.00 | 0.00 | 0.00 | 78 | 1017.0 |
| 20260508124251 | 53 | 81 | 1.0 | 1.0 | 0.00 | 0.00 | 0.00 | 78 | 1017.0 |
| 20260508123749 | 52 | 70 | 1.0 | 1.0 | 0.00 | 0.00 | 0.00 | 81 | 1016.9 |
| 20260508123246 | 51 | 63 | 0.0 | 0.0 | 0.00 | 0.00 | 0.00 | 83 | 1016.7 |
| 20260508122743 | 50 | 58 | 0.0 | 0.0 | 0.00 | 0.00 | 0.00 | 87 | 1016.8 |
| 20260508122239 | 50 | 54 | 0.0 | 1.0 | 0.00 | 0.00 | 0.00 | 91 | 1016.9 |
| 20260508121737 | 48 | 71 | 0.0 | 1.0 | 0.00 | 0.00 | 0.00 | 96 | 1016.8 |
| 20260508121235 | 48 | 59 | 0.0 | 0.0 | 0.00 | 0.00 | 0.00 | 97 | 1017.0 |
| 20260508120732 | 47 | 63 | 0.0 | 0.0 | 0.00 | 0.00 | 0.00 | 98 | 1016.8 |
| 20260508120231 | 46 | 63 | 0.0 | 0.0 | 0.00 | 0.00 | 0.00 | 99 | 1016.6 |
| 20260508115728 | 46 | 61 | 0.0 | 0.0 | 0.00 | 0.00 | 0.00 | 99 | 1016.6 |
| 20260508115225 | 46 | 61 | 0.0 | 0.0 | 0.00 | 0.00 | 0.00 | 99 | 1016.6 |
| 20260508114721 | 45 | 66 | 0.0 | 0.0 | 0.00 | 0.00 | 0.00 | 99 | 1016.5 |
| 20260508114218 | 45 | 62 | 0.0 | 0.0 | 0.00 | 0.00 | 0.00 | 99 | 1016.6 |
| 20260508113715 | 45 | 41 | 0.0 | 0.0 | 0.00 | 0.00 | 0.00 | 99 | 1016.4 |
| 20260508113214 | 45 | 41 | 0.0 | 0.0 | 0.00 | 0.00 | 0.00 | 99 | 1016.1 |
| 20260508112709 | 44 | 40 | 0.0 | 0.0 | 0.00 | 0.00 | 0.00 | 99 | 1016.1 |
| 20260508112206 | 44 | 40 | 0.0 | 0.0 | 0.00 | 0.00 | 0.00 | 99 | 1016.0 |
| 20260508111703 | 44 | 40 | 0.0 | 0.0 | 0.00 | 0.00 | 0.00 | 99 | 1015.9 |
| 20260508111200 | 44 | 40 | 0.0 | 0.0 | 0.00 | 0.00 | 0.00 | 99 | 1015.8 |
| 20260508110658 | 44 | 40 | 0.0 | 0.0 | 0.00 | 0.00 | 0.00 | 99 | 1015.8 |
| 20260508110154 | 44 | 40 | 0.0 | 0.0 | 0.00 | 0.00 | 0.00 | 99 | 1015.8 |
| 20260508105649 | 43 | 40 | 0.0 | 0.0 | 0.00 | 0.00 | 0.00 | 99 | 1015.8 |
| 20260508105146 | 44 | 40 | 0.0 | 0.0 | 0.00 | 0.00 | 0.00 | 98 | 1015.7 |
| 20260508104644 | 44 | 40 | 0.0 | 0.0 | 0.00 | 0.00 | 0.00 | 98 | 1015.6 |
| 20260508104140 | 43 | 40 | 0.0 | 0.0 | 0.00 | 0.00 | 0.00 | 98 | 1015.7 |
| 20260508103637 | 43 | 40 | 0.0 | 0.0 | 0.00 | 0.00 | 0.00 | 98 | 1015.6 |
| 20260508103135 | 43 | 40 | 0.0 | 0.0 | 0.00 | 0.00 | 0.00 | 98 | 1015.7 |
| 20260508102632 | 44 | 40 | 0.0 | 0.0 | 0.00 | 0.00 | 0.00 | 98 | 1015.8 |
| 20260508102130 | 44 | 40 | 0.0 | 0.0 | 0.00 | 0.00 | 0.00 | 98 | 1015.8 |
| 20260508101627 | 43 | 40 | 0.0 | 0.0 | 0.00 | 0.00 | 0.00 | 98 | 1015.7 |
| 20260508101124 | 43 | 40 | 0.0 | 0.0 | 0.00 | 0.00 | 0.00 | 98 | 1015.8 |
| 20260508100622 | 43 | 40 | 0.0 | 0.0 | 0.00 | 0.00 | 0.00 | 98 | 1015.9 |
| 20260508100120 | 44 | 40 | 0.0 | 0.0 | 0.00 | 0.00 | 0.00 | 98 | 1016.0 |
| 20260508095616 | 44 | 40 | 0.0 | 0.0 | 0.00 | 0.00 | 0.00 | 98 | 1015.9 |
| 20260508095113 | 44 | 40 | 0.0 | 0.0 | 0.00 | 0.00 | 0.00 | 98 | 1015.7 |
| 20260508094610 | 44 | 40 | 0.0 | 0.0 | 0.00 | 0.00 | 0.00 | 98 | 1015.8 |
| 20260508094106 | 44 | 39 | 0.0 | 0.0 | 0.00 | 0.00 | 0.00 | 98 | 1015.8 |
| 20260508093604 | 44 | 39 | 0.0 | 0.0 | 0.00 | 0.00 | 0.00 | 98 | 1015.8 |
| 20260508093102 | 44 | 39 | 0.0 | 0.0 | 0.00 | 0.00 | 0.00 | 98 | 1015.6 |
| 20260508092558 | 44 | 39 | 0.0 | 0.0 | 0.00 | 0.00 | 0.00 | 98 | 1015.8 |
| 20260508092057 | 44 | 39 | 0.0 | 0.0 | 0.00 | 0.00 | 0.00 | 98 | 1015.7 |
| 20260508091554 | 44 | 39 | 0.0 | 0.0 | 0.00 | 0.00 | 0.00 | 98 | 1015.7 |
| 20260508091050 | 44 | 39 | 0.0 | 0.0 | 0.00 | 0.00 | 0.00 | 98 | 1015.6 |
| 20260508090549 | 44 | 23 | 1.0 | 1.0 | 0.00 | 0.00 | 0.00 | 98 | 1015.5 |
| 20260508090045 | 44 | 40 | 0.0 | 0.0 | 0.00 | 0.00 | 0.00 | 98 | 1015.3 |
| 20260508085542 | 44 | 60 | 0.0 | 0.0 | 0.00 | 0.00 | 0.00 | 98 | 1015.3 |
| 20260508085039 | 44 | 60 | 0.0 | 0.0 | 0.00 | 0.00 | 0.00 | 98 | 1015.3 |
| 20260508084536 | 44 | 60 | 0.0 | 0.0 | 0.00 | 0.00 | 0.00 | 97 | 1015.2 |
| 20260508084033 | 44 | 60 | 0.0 | 0.0 | 0.00 | 0.00 | 0.00 | 97 | 1015.3 |
| 20260508083530 | 44 | 60 | 0.0 | 0.0 | 0.00 | 0.00 | 0.00 | 97 | 1015.2 |
| 20260508083027 | 44 | 60 | 0.0 | 0.0 | 0.00 | 0.00 | 0.00 | 97 | 1015.3 |
| 20260508082523 | 44 | 60 | 0.0 | 0.0 | 0.00 | 0.00 | 0.00 | 97 | 1015.5 |
| 20260508082020 | 44 | 60 | 0.0 | 0.0 | 0.00 | 0.00 | 0.00 | 97 | 1015.3 |
| 20260508081518 | 44 | 60 | 0.0 | 0.0 | 0.00 | 0.00 | 0.00 | 97 | 1015.6 |
| 20260508081013 | 44 | 60 | 0.0 | 0.0 | 0.00 | 0.00 | 0.00 | 97 | 1015.6 |
| 20260508080512 | 45 | 60 | 0.0 | 0.0 | 0.00 | 0.00 | 0.00 | 96 | 1015.7 |
| 20260508080009 | 45 | 60 | 0.0 | 0.0 | 0.00 | 0.00 | 0.00 | 96 | 1015.6 |
| 20260508075505 | 45 | 60 | 0.0 | 0.0 | 0.00 | 0.00 | 0.00 | 96 | 1015.8 |
| 20260508075003 | 45 | 60 | 0.0 | 0.0 | 0.00 | 0.00 | 0.00 | 96 | 1015.8 |
| 20260508074501 | 45 | 60 | 0.0 | 0.0 | 0.00 | 0.00 | 0.00 | 96 | 1016.0 |
| 20260508073957 | 45 | 60 | 0.0 | 0.0 | 0.00 | 0.00 | 0.00 | 96 | 1015.9 |
| 20260508073454 | 45 | 60 | 0.0 | 0.0 | 0.00 | 0.00 | 0.00 | 95 | 1016.1 |
| 20260508072951 | 45 | 60 | 0.0 | 0.0 | 0.00 | 0.00 | 0.00 | 94 | 1016.0 |
| 20260508072447 | 45 | 60 | 0.0 | 0.0 | 0.00 | 0.00 | 0.00 | 94 | 1016.1 |
| 20260508071945 | 46 | 60 | 0.0 | 0.0 | 0.00 | 0.00 | 0.00 | 94 | 1016.3 |
| 20260508071443 | 46 | 60 | 0.0 | 0.0 | 0.00 | 0.00 | 0.00 | 94 | 1016.3 |
| 20260508070940 | 46 | 60 | 0.0 | 0.0 | 0.00 | 0.00 | 0.00 | 94 | 1016.1 |
| 20260508070438 | 46 | 60 | 0.0 | 0.0 | 0.00 | 0.00 | 0.00 | 93 | 1016.1 |
| 20260508065936 | 46 | 60 | 0.0 | 0.0 | 0.00 | 0.00 | 0.00 | 92 | 1016.1 |
| 20260508065433 | 46 | 60 | 0.0 | 0.0 | 0.00 | 0.00 | 0.00 | 92 | 1016.3 |
| 20260508064931 | 47 | 60 | 0.0 | 0.0 | 0.00 | 0.00 | 0.00 | 92 | 1016.3 |
| 20260508064428 | 47 | 60 | 0.0 | 0.0 | 0.00 | 0.00 | 0.00 | 92 | 1016.6 |
| 20260508063926 | 47 | 60 | 0.0 | 0.0 | 0.00 | 0.00 | 0.00 | 91 | 1016.5 |
| 20260508063423 | 47 | 60 | 0.0 | 0.0 | 0.00 | 0.00 | 0.00 | 90 | 1016.6 |
| 20260508062920 | 47 | 60 | 0.0 | 0.0 | 0.00 | 0.00 | 0.00 | 90 | 1016.6 |
| 20260508062418 | 47 | 60 | 0.0 | 0.0 | 0.00 | 0.00 | 0.00 | 89 | 1016.4 |
| 20260508061915 | 47 | 60 | 0.0 | 0.0 | 0.00 | 0.00 | 0.00 | 90 | 1016.5 |
| 20260508061413 | 47 | 60 | 0.0 | 0.0 | 0.00 | 0.00 | 0.00 | 90 | 1016.6 |
| 20260508060908 | 47 | 60 | 0.0 | 0.0 | 0.00 | 0.00 | 0.00 | 91 | 1016.6 |
| 20260508060407 | 47 | 60 | 0.0 | 0.0 | 0.00 | 0.00 | 0.00 | 93 | 1016.5 |
| 20260508055907 | 47 | 60 | 0.0 | 0.0 | 0.00 | 0.00 | 0.00 | 93 | 1016.6 |
| 20260508055404 | 47 | 60 | 0.0 | 0.0 | 0.00 | 0.00 | 0.00 | 93 | 1016.6 |
| 20260508054900 | 47 | 60 | 0.0 | 0.0 | 0.00 | 0.00 | 0.00 | 93 | 1016.4 |
| 20260508054358 | 47 | 60 | 0.0 | 0.0 | 0.00 | 0.00 | 0.00 | 93 | 1016.6 |
| 20260508053855 | 47 | 60 | 0.0 | 0.0 | 0.00 | 0.00 | 0.00 | 93 | 1016.6 |
| 20260508053352 | 47 | 60 | 0.0 | 0.0 | 0.00 | 0.00 | 0.00 | 93 | 1016.5 |
| 20260508052849 | 47 | 60 | 0.0 | 0.0 | 0.00 | 0.00 | 0.00 | 93 | 1016.5 |
| 20260508052347 | 47 | 60 | 0.0 | 0.0 | 0.00 | 0.00 | 0.00 | 93 | 1016.7 |
| 20260508051843 | 48 | 60 | 0.0 | 0.0 | 0.00 | 0.00 | 0.00 | 93 | 1016.7 |
| 20260508051338 | 48 | 60 | 0.0 | 0.0 | 0.00 | 0.00 | 0.00 | 92 | 1016.6 |
| 20260508050835 | 48 | 60 | 0.0 | 0.0 | 0.00 | 0.00 | 0.00 | 92 | 1016.7 |
| 20260508050332 | 48 | 60 | 0.0 | 0.0 | 0.00 | 0.00 | 0.00 | 91 | 1016.7 |
| 20260508045827 | 47 | 60 | 0.0 | 0.0 | 0.00 | 0.00 | 0.00 | 90 | 1016.4 |
| 20260508045326 | 48 | 60 | 0.0 | 0.0 | 0.00 | 0.00 | 0.00 | 90 | 1016.4 |
| 20260508044823 | 48 | 60 | 0.0 | 0.0 | 0.00 | 0.00 | 0.00 | 90 | 1016.5 |
| 20260508044319 | 48 | 60 | 0.0 | 0.0 | 0.00 | 0.00 | 0.00 | 91 | 1016.6 |
| 20260508043816 | 48 | 60 | 0.0 | 0.0 | 0.00 | 0.00 | 0.00 | 90 | 1016.6 |
| 20260508043313 | 48 | 60 | 0.0 | 0.0 | 0.00 | 0.00 | 0.00 | 89 | 1016.5 |
| 20260508042809 | 48 | 60 | 0.0 | 0.0 | 0.00 | 0.00 | 0.00 | 89 | 1016.3 |
| 20260508042308 | 48 | 60 | 0.0 | 0.0 | 0.00 | 0.00 | 0.00 | 90 | 1016.5 |
| 20260508041804 | 49 | 60 | 0.0 | 0.0 | 0.00 | 0.00 | 0.00 | 89 | 1016.4 |
| 20260508041300 | 48 | 60 | 0.0 | 0.0 | 0.00 | 0.00 | 0.00 | 89 | 1016.5 |
| 20260508040756 | 48 | 60 | 0.0 | 0.0 | 0.00 | 0.00 | 0.00 | 87 | 1016.5 |
| 20260508040254 | 48 | 60 | 0.0 | 0.0 | 0.00 | 0.00 | 0.00 | 88 | 1016.5 |
| 20260508035751 | 49 | 60 | 0.0 | 0.0 | 0.00 | 0.00 | 0.00 | 88 | 1016.3 |
| 20260508035249 | 49 | 60 | 0.0 | 0.0 | 0.00 | 0.00 | 0.00 | 88 | 1016.5 |
| 20260508034745 | 48 | 60 | 0.0 | 0.0 | 0.00 | 0.00 | 0.00 | 87 | 1016.5 |
| 20260508034242 | 49 | 60 | 0.0 | 0.0 | 0.00 | 0.00 | 0.00 | 87 | 1016.6 |
| 20260508033739 | 49 | 60 | 0.0 | 0.0 | 0.00 | 0.00 | 0.00 | 86 | 1016.7 |
| 20260508033238 | 49 | 60 | 0.0 | 0.0 | 0.00 | 0.00 | 0.00 | 84 | 1016.6 |
| 20260508032735 | 49 | 60 | 0.0 | 0.0 | 0.00 | 0.00 | 0.00 | 83 | 1016.8 |
| 20260508032232 | 49 | 60 | 0.0 | 0.0 | 0.00 | 0.00 | 0.00 | 82 | 1016.9 |
| 20260508031729 | 50 | 60 | 0.0 | 0.0 | 0.00 | 0.00 | 0.00 | 85 | 1016.7 |
| 20260508031225 | 50 | 60 | 0.0 | 0.0 | 0.00 | 0.00 | 0.00 | 85 | 1016.8 |
| 20260508030721 | 50 | 60 | 0.0 | 0.0 | 0.00 | 0.00 | 0.00 | 85 | 1016.7 |
| 20260508030219 | 50 | 60 | 0.0 | 0.0 | 0.00 | 0.00 | 0.00 | 84 | 1016.6 |
| 20260508025715 | 50 | 60 | 0.0 | 0.0 | 0.00 | 0.00 | 0.00 | 84 | 1016.5 |
| 20260508025213 | 50 | 60 | 0.0 | 0.0 | 0.00 | 0.00 | 0.00 | 83 | 1016.5 |
| 20260508024708 | 50 | 60 | 0.0 | 0.0 | 0.00 | 0.00 | 0.00 | 82 | 1016.6 |
| 20260508024206 | 50 | 60 | 0.0 | 0.0 | 0.00 | 0.00 | 0.00 | 80 | 1016.4 |
| 20260508023701 | 50 | 60 | 0.0 | 0.0 | 0.00 | 0.00 | 0.00 | 78 | 1016.5 |
| 20260508023200 | 50 | 60 | 0.0 | 0.0 | 0.00 | 0.00 | 0.00 | 77 | 1016.3 |
| 20260508022655 | 51 | 60 | 0.0 | 0.0 | 0.00 | 0.00 | 0.00 | 76 | 1016.4 |
| 20260508022152 | 51 | 60 | 0.0 | 0.0 | 0.00 | 0.00 | 0.00 | 76 | 1016.4 |
| 20260508021648 | 51 | 60 | 0.0 | 0.0 | 0.00 | 0.00 | 0.00 | 72 | 1016.0 |
| 20260508021144 | 51 | 60 | 0.0 | 0.0 | 0.00 | 0.00 | 0.00 | 73 | 1016.1 |
| 20260508020642 | 51 | 60 | 0.0 | 0.0 | 0.00 | 0.00 | 0.00 | 70 | 1016.0 |
| 20260508020139 | 52 | 60 | 0.0 | 0.0 | 0.00 | 0.00 | 0.00 | 68 | 1015.8 |
| 20260508015637 | 52 | 60 | 0.0 | 0.0 | 0.00 | 0.00 | 0.00 | 69 | 1015.8 |
| 20260508015133 | 52 | 60 | 0.0 | 0.0 | 0.00 | 0.00 | 0.00 | 68 | 1016.0 |
| 20260508014630 | 53 | 60 | 0.0 | 0.0 | 0.00 | 0.00 | 0.00 | 69 | 1015.7 |
| 20260508014126 | 52 | 60 | 0.0 | 0.0 | 0.00 | 0.00 | 0.00 | 64 | 1016.0 |
| 20260508013622 | 53 | 60 | 0.0 | 0.0 | 0.00 | 0.00 | 0.00 | 63 | 1015.9 |
| 20260508013119 | 53 | 60 | 0.0 | 0.0 | 0.00 | 0.00 | 0.00 | 65 | 1016.0 |
| 20260508012617 | 54 | 60 | 0.0 | 0.0 | 0.00 | 0.00 | 0.00 | 63 | 1015.8 |
| 20260508012114 | 54 | 60 | 0.0 | 0.0 | 0.00 | 0.00 | 0.00 | 63 | 1015.6 |
| 20260508011612 | 54 | 60 | 0.0 | 0.0 | 0.00 | 0.00 | 0.00 | 63 | 1015.6 |
| 20260508011109 | 54 | 60 | 0.0 | 0.0 | 0.00 | 0.00 | 0.00 | 63 | 1015.6 |
| 20260508010606 | 55 | 60 | 0.0 | 0.0 | 0.00 | 0.00 | 0.00 | 63 | 1015.7 |
| 20260508010104 | 55 | 60 | 0.0 | 0.0 | 0.00 | 0.00 | 0.00 | 62 | 1015.6 |
| 20260508005600 | 56 | 60 | 0.0 | 0.0 | 0.00 | 0.00 | 0.00 | 62 | 1015.6 |
| 20260508005056 | 56 | 60 | 0.0 | 0.0 | 0.00 | 0.00 | 0.00 | 60 | 1015.6 |
| 20260508004552 | 56 | 60 | 0.0 | 0.0 | 0.00 | 0.00 | 0.00 | 58 | 1015.5 |
| 20260508004049 | 57 | 60 | 0.0 | 0.0 | 0.00 | 0.00 | 0.00 | 54 | 1015.4 |
| 20260508003546 | 58 | 60 | 0.0 | 0.0 | 0.00 | 0.00 | 0.00 | 53 | 1015.5 |
| 20260508003044 | 58 | 60 | 0.0 | 0.0 | 0.00 | 0.00 | 0.00 | 52 | 1015.3 |
| 20260508002540 | 59 | 60 | 0.0 | 0.0 | 0.00 | 0.00 | 0.00 | 52 | 1015.4 |
| 20260508002037 | 60 | 60 | 0.0 | 0.0 | 0.00 | 0.00 | 0.00 | 51 | 1015.4 |
| 20260508001533 | 60 | 60 | 0.0 | 0.0 | 0.00 | 0.00 | 0.00 | 50 | 1015.3 |
| 20260508001029 | 60 | 60 | 0.0 | 0.0 | 0.00 | 0.00 | 0.00 | 48 | 1015.3 |
| 20260508000525 | 61 | 53 | 0.0 | 0.0 | 0.00 | 0.00 | 0.00 | 46 | 1015.4 |
| 20260508000023 | 61 | 53 | 0.0 | 0.0 | 0.00 | 0.00 | 0.00 | 46 | 1015.2 |
| 20260507235519 | 62 | 59 | 0.0 | 0.0 | 0.00 | 0.00 | 0.00 | 45 | 1014.9 |
| 20260507235017 | 62 | 59 | 0.0 | 0.0 | 0.00 | 0.00 | 0.00 | 44 | 1015.1 |
| 20260507234513 | 62 | 55 | 0.0 | 0.0 | 0.00 | 0.00 | 0.00 | 44 | 1015.1 |
| 20260507234009 | 63 | 55 | 0.0 | 0.0 | 0.00 | 0.00 | 0.00 | 44 | 1015.2 |
| 20260507233506 | 63 | 53 | 0.0 | 0.0 | 0.00 | 0.00 | 0.00 | 43 | 1015.0 |
| 20260507233005 | 63 | 63 | 0.0 | 0.0 | 0.00 | 0.00 | 0.00 | 44 | 1015.1 |
| 20260507232500 | 64 | 64 | 0.0 | 0.0 | 0.00 | 0.00 | 0.00 | 42 | 1015.1 |
| 20260507231958 | 64 | 57 | 0.0 | 0.0 | 0.00 | 0.00 | 0.00 | 41 | 1015.1 |
| 20260507231454 | 64 | 51 | 0.0 | 0.0 | 0.00 | 0.00 | 0.00 | 45 | 1015.2 |
| 20260507230951 | 65 | 53 | 0.0 | 0.0 | 0.00 | 0.00 | 0.00 | 43 | 1015.2 |
| 20260507230448 | 65 | 54 | 0.0 | 0.0 | 0.00 | 0.00 | 0.00 | 40 | 1015.1 |
| 20260507225944 | 65 | 39 | 0.0 | 1.0 | 0.00 | 0.00 | 0.00 | 41 | 1015.2 |
| 20260507225440 | 65 | 57 | 1.0 | 2.0 | 0.00 | 0.00 | 0.00 | 40 | 1015.0 |
| 20260507224936 | 65 | 50 | 0.0 | 0.0 | 0.00 | 0.00 | 0.00 | 42 | 1015.4 |
| 20260507224432 | 66 | 304 | 1.0 | 2.0 | 0.00 | 0.00 | 0.00 | 39 | 1015.3 |
| 20260507223929 | 66 | 14 | 2.0 | 3.0 | 0.00 | 0.00 | 0.00 | 37 | 1015.3 |
| 20260507223425 | 66 | 50 | 1.0 | 1.0 | 0.00 | 0.00 | 0.00 | 40 | 1015.4 |
| 20260507222922 | 66 | 50 | 0.0 | 0.0 | 0.00 | 0.00 | 0.00 | 40 | 1015.4 |
| 20260507222419 | 66 | 61 | 0.0 | 0.0 | 0.00 | 0.00 | 0.00 | 39 | 1015.4 |
| 20260507221916 | 67 | 52 | 0.0 | 0.0 | 0.00 | 0.00 | 0.00 | 39 | 1015.2 |
| 20260507221412 | 67 | 47 | 0.0 | 1.0 | 0.00 | 0.00 | 0.00 | 40 | 1015.4 |
| 20260507220908 | 68 | 44 | 0.0 | 1.0 | 0.00 | 0.00 | 0.00 | 39 | 1015.2 |
| 20260507220407 | 68 | 46 | 0.0 | 0.0 | 0.00 | 0.00 | 0.00 | 37 | 1015.5 |
| 20260507215903 | 69 | 39 | 1.0 | 1.0 | 0.00 | 0.00 | 0.00 | 35 | 1015.3 |
| 20260507215359 | 70 | 41 | 0.0 | 0.0 | 0.00 | 0.00 | 0.00 | 39 | 1015.4 |
| 20260507214857 | 69 | 90 | 1.0 | 2.0 | 0.00 | 0.00 | 0.00 | 38 | 1015.2 |
| 20260507214354 | 70 | 28 | 2.0 | 2.0 | 0.00 | 0.00 | 0.00 | 37 | 1015.2 |
| 20260507213850 | 70 | 35 | 0.0 | 0.0 | 0.00 | 0.00 | 0.00 | 37 | 1015.2 |
| 20260507213346 | 69 | 33 | 1.0 | 1.0 | 0.00 | 0.00 | 0.00 | 36 | 1015.2 |
| 20260507212843 | 69 | 35 | 0.0 | 0.0 | 0.00 | 0.00 | 0.00 | 35 | 1015.1 |
| 20260507212339 | 70 | 132 | 2.0 | 3.0 | 0.00 | 0.00 | 0.00 | 39 | 1015.2 |
| 20260507211836 | 70 | 138 | 1.0 | 2.0 | 0.00 | 0.00 | 0.00 | 39 | 1015.1 |
| 20260507211333 | 70 | 283 | 3.0 | 3.0 | 0.00 | 0.00 | 0.00 | 38 | 1015.2 |
| 20260507210829 | 70 | 265 | 1.0 | 3.0 | 0.00 | 0.00 | 0.00 | 37 | 1015.2 |
| 20260507210327 | 70 | 4 | 2.0 | 2.0 | 0.00 | 0.00 | 0.00 | 36 | 1015.2 |
| 20260507205823 | 70 | 118 | 1.0 | 2.0 | 0.00 | 0.00 | 0.00 | 37 | 1015.3 |
| 20260507205320 | 70 | 359 | 3.0 | 3.0 | 0.00 | 0.00 | 0.00 | 34 | 1015.4 |
| 20260507204816 | 70 | 30 | 2.0 | 2.0 | 0.00 | 0.00 | 0.00 | 36 | 1015.3 |
| 20260507204314 | 69 | 34 | 2.0 | 2.0 | 0.00 | 0.00 | 0.00 | 38 | 1015.2 |
| 20260507203812 | 69 | 50 | 2.0 | 2.0 | 0.00 | 0.00 | 0.00 | 36 | 1015.3 |
| 20260507203309 | 69 | 64 | 0.0 | 1.0 | 0.00 | 0.00 | 0.00 | 38 | 1015.6 |
| 20260507202805 | 69 | 54 | 2.0 | 3.0 | 0.00 | 0.00 | 0.00 | 36 | 1015.5 |
| 20260507202301 | 69 | 24 | 2.0 | 2.0 | 0.00 | 0.00 | 0.00 | 39 | 1015.8 |
| 20260507201756 | 69 | 61 | 0.0 | 1.0 | 0.00 | 0.00 | 0.00 | 37 | 1015.5 |
| 20260507201253 | 70 | 32 | 1.0 | 1.0 | 0.00 | 0.00 | 0.00 | 40 | 1015.8 |
| 20260507200749 | 70 | 38 | 0.0 | 1.0 | 0.00 | 0.00 | 0.00 | 38 | 1015.8 |
| 20260507200245 | 69 | 69 | 1.0 | 1.0 | 0.00 | 0.00 | 0.00 | 35 | 1015.8 |
| 20260507195741 | 69 | 324 | 2.0 | 3.0 | 0.00 | 0.00 | 0.00 | 38 | 1015.8 |
| 20260507195239 | 69 | 137 | 2.0 | 2.0 | 0.00 | 0.00 | 0.00 | 35 | 1015.7 |
| 20260507194736 | 69 | 65 | 1.0 | 2.0 | 0.00 | 0.00 | 0.00 | 37 | 1015.7 |
| 20260507194232 | 70 | 47 | 0.0 | 1.0 | 0.00 | 0.00 | 0.00 | 37 | 1015.9 |
| 20260507193729 | 70 | 32 | 1.0 | 1.0 | 0.00 | 0.00 | 0.00 | 41 | 1016.0 |
| 20260507193226 | 70 | 82 | 1.0 | 1.0 | 0.00 | 0.00 | 0.00 | 36 | 1015.8 |
| 20260507192722 | 70 | 41 | 1.0 | 2.0 | 0.00 | 0.00 | 0.00 | 39 | 1015.9 |
| 20260507192219 | 70 | 1 | 1.0 | 2.0 | 0.00 | 0.00 | 0.00 | 36 | 1016.0 |
| 20260507191714 | 70 | 55 | 0.0 | 1.0 | 0.00 | 0.00 | 0.00 | 39 | 1016.4 |
| 20260507191212 | 70 | 41 | 0.0 | 1.0 | 0.00 | 0.00 | 0.00 | 43 | 1016.3 |
| 20260507190708 | 69 | 35 | 1.0 | 1.0 | 0.00 | 0.00 | 0.00 | 42 | 1016.4 |
| 20260507190207 | 68 | 32 | 1.0 | 1.0 | 0.00 | 0.00 | 0.00 | 40 | 1016.3 |
| 20260507185705 | 69 | 41 | 1.0 | 1.0 | 0.00 | 0.00 | 0.00 | 38 | 1016.3 |
| 20260507185202 | 69 | 42 | 1.0 | 1.0 | 0.00 | 0.00 | 0.00 | 41 | 1016.3 |
| 20260507184659 | 68 | 55 | 1.0 | 1.0 | 0.00 | 0.00 | 0.00 | 40 | 1016.5 |
| 20260507184157 | 68 | 10 | 2.0 | 3.0 | 0.00 | 0.00 | 0.00 | 38 | 1016.5 |
| 20260507183653 | 69 | 235 | 3.0 | 3.0 | 0.00 | 0.00 | 0.00 | 37 | 1016.6 |
| 20260507183150 | 69 | 85 | 1.0 | 1.0 | 0.00 | 0.00 | 0.00 | 40 | 1016.4 |
| 20260507182648 | 68 | 53 | 0.0 | 1.0 | 0.00 | 0.00 | 0.00 | 44 | 1016.3 |
| 20260507182143 | 68 | 45 | 1.0 | 1.0 | 0.00 | 0.00 | 0.00 | 46 | 1016.5 |
| 20260507181640 | 68 | 317 | 2.0 | 2.0 | 0.00 | 0.00 | 0.00 | 41 | 1016.7 |
| 20260507181136 | 68 | 33 | 1.0 | 1.0 | 0.00 | 0.00 | 0.00 | 37 | 1016.9 |
| 20260507180632 | 67 | 41 | 2.0 | 2.0 | 0.00 | 0.00 | 0.00 | 41 | 1016.8 |
| 20260507180130 | 68 | 38 | 2.0 | 2.0 | 0.00 | 0.00 | 0.00 | 42 | 1016.7 |